When you browse on this site, cookies collect data to enhance your experience and personalize the content and advertising you see.
Visit our Privacy Policy to learn more. By continuing to use the site, you agree to this use of cookies and data.
  • In France
  • List of Countries
  • For 7 days
  • Water Temperature
  • Weather Map
  • Weather Widgets
  • user-avatar
    Login

    Hourly Weather Jewłach

    Today, 23 August, Friday

    Time Temperature Precipitation Wind Pressure Humidity
    00:00 +27°C° 0 mm 3 mps 758 mmHg 42%
    01:00 +26°C° 0 mm 3 mps 758 mmHg 44%
    02:00 +26°C° 0 mm 2 mps 758 mmHg 46%
    03:00 +25°C° 0 mm 3 mps 758 mmHg 48%
    04:00 +26°C° 0 mm 2 mps 758 mmHg 49%
    05:00 +26°C° 0 mm 2 mps 758 mmHg 49%
    06:00 +26°C° 0 mm 2 mps 758 mmHg 49%
    07:00 +29°C° 0 mm 3 mps 758 mmHg 43%
    08:00 +31°C° 0 mm 3 mps 759 mmHg 36%
    09:00 +35°C° 0 mm 4 mps 759 mmHg 29%
    10:00 +37°C° 0 mm 5 mps 758 mmHg 26%
    11:00 +40°C° 0 mm 6 mps 758 mmHg 23%
    12:00 +43°C° 0 mm 8 mps 757 mmHg 20%
    13:00 +44°C° 0 mm 8 mps 757 mmHg 18%
    14:00 +45°C° 0 mm 8 mps 757 mmHg 17%
    15:00 +45°C° 0 mm 8 mps 756 mmHg 15%
    16:00 +44°C° 0 mm 8 mps 756 mmHg 15%
    17:00 +43°C° 0 mm 8 mps 756 mmHg 15%
    18:00 +41°C° 0 mm 8 mps 756 mmHg 15%
    19:00 +38°C° 0 mm 7 mps 757 mmHg 19%
    20:00 +35°C° 0 mm 6 mps 757 mmHg 23%
    21:00 +32°C° 0 mm 5 mps 758 mmHg 28%
    22:00 +30°C° 0 mm 4 mps 758 mmHg 32%
    23:00 +29°C° 0 mm 3 mps 758 mmHg 36%

    Tomorrow, 24 August, Saturday

    Time Temperature Precipitation Wind Pressure Humidity
    00:00 +27°C° 0 mm 2 mps 758 mmHg 40%
    01:00 +27°C° 0 mm 2 mps 758 mmHg 45%
    02:00 +26°C° 0 mm 2 mps 758 mmHg 49%
    03:00 +25°C° 0 mm 2 mps 758 mmHg 54%
    04:00 +26°C° 0 mm 2 mps 758 mmHg 55%
    05:00 +26°C° 0 mm 1 mps 758 mmHg 55%
    06:00 +26°C° 0 mm 1 mps 758 mmHg 56%
    07:00 +29°C° 0 mm 1 mps 758 mmHg 48%
    08:00 +31°C° 0 mm 2 mps 758 mmHg 41%
    09:00 +35°C° 0 mm 2 mps 758 mmHg 34%
    10:00 +37°C° 0 mm 3 mps 758 mmHg 28%
    11:00 +41°C° 0 mm 4 mps 757 mmHg 23%
    12:00 +43°C° 0 mm 5 mps 757 mmHg 17%
    13:00 +45°C° 0 mm 6 mps 757 mmHg 16%
    14:00 +45°C° 0 mm 6 mps 756 mmHg 15%
    15:00 +46°C° 0 mm 7 mps 756 mmHg 14%
    16:00 +45°C° 0 mm 7 mps 756 mmHg 14%
    17:00 +44°C° 0 mm 8 mps 756 mmHg 14%
    18:00 +43°C° 0 mm 8 mps 756 mmHg 15%
    19:00 +39°C° 0 mm 7 mps 757 mmHg 21%
    20:00 +35°C° 0 mm 6 mps 758 mmHg 26%
    21:00 +32°C° 0 mm 5 mps 758 mmHg 32%
    22:00 +30°C° 0 mm 4 mps 758 mmHg 37%
    23:00 +29°C° 0 mm 2 mps 758 mmHg 41%

    Day after tomorrow, 25 August, Sunday

    Time Temperature Precipitation Wind Pressure Humidity
    00:00 +28°C° 0 mm 1 mps 758 mmHg 45%
    01:00 +27°C° 0 mm 1 mps 758 mmHg 47%
    02:00 +26°C° 0 mm 1 mps 758 mmHg 48%
    03:00 +26°C° 0 mm 1 mps 758 mmHg 50%
    04:00 +26°C° 0 mm 1 mps 758 mmHg 50%
    05:00 +26°C° 0 mm 1 mps 758 mmHg 50%
    06:00 +27°C° 0 mm 2 mps 758 mmHg 49%
    07:00 +29°C° 0 mm 2 mps 758 mmHg 43%
    08:00 +33°C° 0 mm 3 mps 758 mmHg 37%
    09:00 +35°C° 0 mm 3 mps 758 mmHg 31%
    10:00 +37°C° 0 mm 3 mps 758 mmHg 27%
    11:00 +39°C° 0 mm 2 mps 757 mmHg 23%
    12:00 +40°C° 0 mm 2 mps 757 mmHg 18%
    13:00 +41°C° 0 mm 2 mps 757 mmHg 17%
    14:00 +43°C° 0 mm 3 mps 756 mmHg 16%
    15:00 +44°C° 0 mm 3 mps 756 mmHg 14%
    16:00 +42°C° 0 mm 4 mps 756 mmHg 16%
    17:00 +41°C° 0 mm 4 mps 756 mmHg 17%
    18:00 +40°C° 0 mm 5 mps 756 mmHg 19%
    19:00 +36°C° 0 mm 5 mps 757 mmHg 23%
    20:00 +33°C° 0 mm 4 mps 758 mmHg 27%
    21:00 +30°C° 0 mm 4 mps 758 mmHg 32%
    22:00 +29°C° 0 mm 4 mps 758 mmHg 35%
    23:00 +27°C° 0 mm 3 mps 758 mmHg 38%

    26 August, Monday

    Time Temperature Precipitation Wind Pressure Humidity
    00:00 +26°C° 0 mm 3 mps 759 mmHg 42%
    01:00 +26°C° 0 mm 3 mps 759 mmHg 43%
    02:00 +25°C° 0 mm 2 mps 759 mmHg 45%
    03:00 +25°C° 0 mm 2 mps 759 mmHg 46%
    04:00 +25°C° 0 mm 1 mps 759 mmHg 48%
    05:00 +25°C° 0 mm 1 mps 759 mmHg 50%
    06:00 +25°C° 0 mm 1 mps 759 mmHg 53%
    07:00 +27°C° 0.1 mm 1 mps 759 mmHg 45%
    08:00 +29°C° 0.1 mm 1 mps 760 mmHg 37%
    09:00 +32°C° 0.1 mm 2 mps 760 mmHg 30%
    10:00 +35°C° 0 mm 3 mps 759 mmHg 26%
    11:00 +37°C° 0 mm 4 mps 759 mmHg 22%
    12:00 +38°C° 0 mm 4 mps 759 mmHg 18%
    13:00 +40°C° 0.1 mm 5 mps 759 mmHg 18%
    14:00 +41°C° 0.1 mm 5 mps 758 mmHg 18%
    15:00 +41°C° 0.1 mm 6 mps 758 mmHg 17%
    16:00 +40°C° 0.1 mm 5 mps 758 mmHg 21%
    17:00 +37°C° 0.1 mm 5 mps 759 mmHg 24%
    18:00 +36°C° 0.1 mm 5 mps 759 mmHg 27%
    19:00 +34°C° 0 mm 6 mps 760 mmHg 34%
    20:00 +32°C° 0 mm 7 mps 761 mmHg 41%
    21:00 +29°C° 0 mm 8 mps 761 mmHg 48%
    22:00 +28°C° 0 mm 7 mps 762 mmHg 50%
    23:00 +28°C° 0 mm 6 mps 762 mmHg 52%

    27 August, Tuesday

    Time Temperature Precipitation Wind Pressure Humidity
    00:00 +28°C° 0 mm 4 mps 762 mmHg 54%
    01:00 +27°C° 0.1 mm 4 mps 762 mmHg 57%
    02:00 +26°C° 0.1 mm 4 mps 761 mmHg 61%
    03:00 +25°C° 0.1 mm 4 mps 761 mmHg 65%
    04:00 +25°C° 0 mm 4 mps 761 mmHg 65%
    05:00 +25°C° 0 mm 4 mps 761 mmHg 66%
    06:00 +25°C° 0 mm 5 mps 762 mmHg 67%
    07:00 +26°C° 0 mm 5 mps 761 mmHg 61%
    08:00 +28°C° 0 mm 6 mps 761 mmHg 54%
    09:00 +30°C° 0 mm 6 mps 761 mmHg 47%
    10:00 +32°C° 0.1 mm 6 mps 761 mmHg 43%
    11:00 +34°C° 0.1 mm 6 mps 760 mmHg 38%
    12:00 +35°C° 0.1 mm 5 mps 760 mmHg 34%
    13:00 +35°C° 0.2 mm 5 mps 759 mmHg 33%
    14:00 +36°C° 0.2 mm 5 mps 759 mmHg 31%
    15:00 +36°C° 0.2 mm 4 mps 758 mmHg 30%
    16:00 +36°C° 0.1 mm 5 mps 758 mmHg 31%
    17:00 +35°C° 0.1 mm 5 mps 758 mmHg 32%
    18:00 +34°C° 0.1 mm 5 mps 758 mmHg 33%
    19:00 +32°C° 0.1 mm 5 mps 759 mmHg 41%
    20:00 +29°C° 0.1 mm 5 mps 759 mmHg 48%
    21:00 +27°C° 0.1 mm 5 mps 759 mmHg 56%
    22:00 +26°C° 0.3 mm 4 mps 759 mmHg 62%
    23:00 +25°C° 0.3 mm 4 mps 759 mmHg 69%

    28 August, Wednesday

    Time Temperature Precipitation Wind Pressure Humidity
    00:00 +24°C° 0.3 mm 3 mps 759 mmHg 75%
    01:00 +23°C° 0.1 mm 2 mps 759 mmHg 76%
    02:00 +23°C° 0.1 mm 2 mps 759 mmHg 77%
    03:00 +23°C° 0.1 mm 1 mps 758 mmHg 77%
    04:00 +23°C° 0 mm 1 mps 759 mmHg 76%
    05:00 +23°C° 0 mm 1 mps 759 mmHg 75%
    06:00 +21°C° 0 mm 0 mps 759 mmHg 74%
    07:00 +25°C° 0 mm 1 mps 759 mmHg 66%
    08:00 +27°C° 0 mm 1 mps 759 mmHg 58%
    09:00 +29°C° 0 mm 1 mps 759 mmHg 50%
    10:00 +31°C° 0 mm 2 mps 759 mmHg 45%
    11:00 +32°C° 0 mm 2 mps 759 mmHg 39%
    12:00 +35°C° 0 mm 2 mps 758 mmHg 34%
    13:00 +36°C° 0 mm 2 mps 758 mmHg 32%
    14:00 +36°C° 0 mm 3 mps 758 mmHg 30%
    15:00 +37°C° 0 mm 3 mps 757 mmHg 28%
    16:00 +37°C° 0 mm 4 mps 758 mmHg 28%
    17:00 +36°C° 0 mm 4 mps 758 mmHg 28%
    18:00 +36°C° 0 mm 4 mps 758 mmHg 29%
    19:00 +33°C° 0 mm 5 mps 759 mmHg 34%
    20:00 +30°C° 0 mm 6 mps 759 mmHg 40%
    21:00 +28°C° 0 mm 6 mps 760 mmHg 45%
    22:00 +27°C° 0 mm 6 mps 760 mmHg 47%
    23:00 +26°C° 0 mm 5 mps 760 mmHg 50%
    Show more